Location: Academy Plaza Shopping Center
(35.1300°N, 106.5500°W)
Time: 01:54:18
(UTC+00:00)

Daily predictions for brighter satellites

Satellite Brightness Start Highest point End
(mag) Time Altitude Azimuth Time Altitude Azimuth Time Altitude Azimuth
YAOGAN 6 2.5 00:16:13 10° SSE 00:19:51 75° ENE 00:23:28 10° N
Cosmos 2297 4.3 00:19:01 10° N 00:24:13 36° ENE 00:29:26 10° SE
SL-16 R/B 2.3 00:18:34 10° SSW 00:24:14 88° ESE 00:29:56 10° NNE
BREEZE-M DEB (TANK) 3.5 00:22:47 10° SW 00:28:29 37° SSE 00:31:22 10° ENE
Meteor 2-12 Rocket 4.4 00:22:26 10° N 00:28:35 71° E 00:34:38 10° SSE
Sich 1 3.0 00:28:33 10° N 00:32:56 84° E 00:37:15 10° S
Cosmos 1151 Rocket 3.0 00:31:36 10° S 00:35:47 58° E 00:39:59 10° NNE
Cosmos 1933 3.3 00:32:31 10° S 00:36:32 80° E 00:40:36 10° N
Cosmos 1782 3.4 00:36:28 10° SSE 00:40:03 35° E 00:43:42 10° NNE
COSMO-SKYMED 1 3.2 00:36:45 10° NNE 00:40:44 35° E 00:44:42 10° SSE
USA 215 3.3 00:35:15 10° NE 00:41:48 78° SE 00:48:20 10° SW
Cosmos 1538 Rocket 4.4 00:37:23 10° S 00:42:26 44° ESE 00:47:32 10° NNE
Cosmos 2341 Rocket 4.0 00:39:34 10° N 00:45:54 86° E 00:52:15 10° S
TIMED 4.5 00:44:05 10° S 00:48:23 64° ESE 00:52:42 10° NNE
X-37B 1.3 00:48:45 10° WSW 00:51:48 45° NNW 00:53:55 17° NE
SL-8 Rocket 3.9 00:48:00 10° N 00:54:15 75° E 01:00:31 10° S
SL-24 R/B 4.1 00:51:29 10° NNE 00:55:03 39° E 00:58:28 10° SSE
Cosmos 1328 Rocket 3.5 00:50:55 10° S 00:55:13 88° E 00:59:34 10° N
FALCON 9 R/B 0.1 00:55:11 10° W 00:57:22 74° S 00:58:37 25° E
Cosmos 2285 Rocket 4.0 00:51:43 10° N 00:58:03 62° ENE 01:04:17 10° SSE
Okean-O 3.8 00:55:14 10° ESE 00:58:35 22° ENE 01:01:57 10° NNE
Meteor 1-26 Rocket 4.4 00:54:24 10° S 01:00:24 85° E 01:06:28 10° N
Cosmos 1933 Rocket 4.4 00:56:43 10° NNE 01:00:38 29° ENE 01:04:30 10° SE
Cosmos 1959 Rocket 4.5 00:54:51 10° N 01:01:13 69° E 01:07:29 10° SSE
Cosmos 1666 Rocket 3.8 00:57:16 10° N 01:01:42 74° W 01:06:07 10° S
Okean O Rocket 2.2 00:57:28 10° S 01:01:45 60° W 01:06:05 10° NNW
Lacrosse 5 rocket 3.5 00:59:29 10° WNW 01:01:48 16° NW 01:04:05 10° N
SMAP 3.9 00:57:40 10° S 01:02:12 53° W 01:06:46 10° NNW
SKYMED 3 4.5 01:00:28 10° NNE 01:04:48 70° ESE 01:09:07 10° S
SAR-Lupe-4 3.5 01:01:51 10° NNE 01:05:25 63° ESE 01:08:57 10° S
Cosmos 2181 Rocket 4.4 00:59:50 10° SSW 01:06:13 69° W 01:12:35 10° N
Cosmos 1689 Rocket 2.2 01:06:56 31° NE 01:07:57 46° E 01:10:46 10° S
Meteor 1-20 Rocket 4.3 01:02:25 10° N 01:08:18 86° W 01:14:05 10° S
Meteor 1-4 Rocket 2.7 01:06:57 10° SSW 01:10:35 73° W 01:14:10 10° N
USA 267 4.5 01:09:12 18° NE 01:11:28 22° NNE 01:16:12 10° NNW
BREEZE-M DEB (TANK) 4.1 01:00:10 10° SW 01:13:27 80° NW 01:16:02 24° NE
ATLAS 3B CENTAUR R/B 2.6 01:13:40 10° SSW 01:14:20 11° S 01:14:47 11° SSE
SL-24 DEB 4.2 01:09:58 10° NNE 01:14:40 62° E 01:19:17 10° S
CZ-4B R/B 4.4 01:10:20 10° S 01:15:23 43° W 01:20:26 10° NNW
NOAA 11 4.5 01:11:47 10° S 01:17:10 70° WSW 01:22:36 10° NNW
USA 281 3.7 01:11:50 10° ESE 01:17:42 37° ENE 01:23:36 10° N
CZ-2C R/B 3.4 01:13:01 10° SE 01:17:42 38° ENE 01:22:13 10° N
Cosmos 1603 3.6 01:13:55 10° S 01:19:28 64° ESE 01:23:33 19° NNE
CZ-4 R/B 4.5 01:16:19 10° SSE 01:20:21 54° ENE 01:24:24 10° N
CZ-4B R/B 3.3 01:19:33 10° NNW 01:22:14 27° WNW 01:24:56 10° SW
SAR-Lupe-1 4.1 01:19:14 13° N 01:22:26 77° WNW 01:26:00 10° SSW
Cosmos 1943 3.2 01:20:14 10° S 01:25:47 63° ESE 01:29:17 23° NNE
Cosmos 1633 Rocket 4.3 01:24:11 10° NNW 01:28:18 42° W 01:32:23 10° SSW
Meteor 1-10 Rocket 4.4 01:22:53 10° SSE 01:28:19 47° E 01:31:27 24° NNE
SKYMED 2 4.1 01:24:33 10° N 01:28:50 60° WNW 01:33:06 10° SSW
PSLV R/B 3.8 01:26:26 16° NNE 01:29:37 88° W 01:33:39 10° SSW
Cosmos 2369 Rocket 2.3 01:28:58 10° N 01:34:27 48° ENE 01:37:02 28° ESE
Lacrosse 4 Rocket 3.7 01:32:03 10° SSE 01:32:22 11° SSE 01:32:22 11° SSE
SL-08 R/B 4.3 01:29:57 10° N 01:36:06 79° E 01:42:12 10° S
CZ-4 R/B 3.3 01:32:58 10° SSE 01:40:23 12° N 01:40:42 10° N
ERS-2 4.3 01:34:36 10° NNW 01:37:37 25° WNW 01:40:39 10° SW
Sakura Rocket 4.3 01:34:16 10° SW 01:37:41 27° SSE 01:38:29 26° SE
Cosmos 1939 Rocket 3.6 01:36:25 10° S 01:40:09 51° W 01:43:58 10° NNW
IRS-1C Rocket 4.2 01:38:25 10° S 01:43:41 76° WSW 01:48:58 10° NNW
CREW DRAGON DEMO-1 DEB 4.1 01:42:06 10° WNW 01:44:39 40° WSW 01:44:39 40° WSW
NOSS 3-2 (C) 3.6 01:40:14 10° S 01:45:16 41° ESE 01:45:16 41° ESE
CZ-3B R/B 3.1 01:43:05 10° WSW 01:45:49 22° NW 01:45:50 22° NW
Cosmos 1943 Rocket 2.2 01:40:34 10° NNW 01:46:07 79° WSW 01:51:43 10° SSE
CENTAUR R/B 2.6 01:41:37 10° S 01:46:50 45° ESE 01:47:09 44° ESE
Cosmos 1461 4.4 01:43:14 10° S 01:45:36 26° SSE 01:45:36 26° SSE
Cosmos 923 Rocket 3.8 01:42:47 10° S 01:47:57 79° ESE 01:49:34 45° NNE
H-2A R/B 3.2 01:43:49 10° SSE 01:51:28 28° NNE 01:53:59 10° N
ATLAS CENTAUR R/B 3.9 01:43:00 10° NW 02:00:20 85° NE 02:03:51 34° SE
Cosmos 158 Rocket 4.0 02:00:38 10° SSW 02:05:38 71° WNW 02:06:25 59° NNW
Cosmos 2228 Rocket 3.9 02:04:00 10° SSW 02:08:25 51° W 02:09:53 36° NNW
Cosmos 1812 4.0 02:07:48 10° SSW 02:11:05 39° W 02:11:05 39° W
NOSS 3-2 (A) 3.5 02:06:57 10° SW 02:12:24 65° NW 02:13:46 50° N
Cosmos 1680 Rocket 3.5 02:10:37 10° SSW 02:15:46 76° W 02:15:46 76° W
Cosmos 2239 Rocket 4.4 02:11:11 10° N 02:17:22 84° W 02:23:35 10° S
Gblst 52 Del rocket 4.5 02:20:28 10° SW 02:26:02 66° SSW 02:26:02 66° SSW
USA 238 DEB 4.0 02:23:29 10° SW 02:29:55 60° NW 02:31:13 51° NNW
USA 238 3.9 02:23:34 10° SW 02:30:00 60° NW 02:31:16 52° NNW
USA 267 4.3 02:56:34 34° NNW 02:56:34 34° NNW 03:00:06 10° NW
USA 281 4.4 02:56:07 10° S 03:02:04 37° WSW 03:08:05 10° NW
Cosmos 2369 Rocket 4.5 03:14:05 10° NW 03:18:01 20° W 03:19:05 19° WSW
Lacrosse 5 4.0 11:09:02 19° NE 11:09:02 19° NE 11:10:28 10° NE
NOSS 3-2 (C) 4.3 11:10:08 50° N 11:12:21 68° ENE 11:20:59 10° SE
CENTAUR R/B 3.4 11:10:33 47° N 11:13:20 70° ENE 11:22:12 10° SE
Atlas Centaur 2 3.0 11:17:04 50° S 11:17:04 50° S 11:22:45 10° E
ADEOS 4.4 11:16:05 10° NNE 11:21:09 48° E 11:26:09 10° S
Cosmos 2263 Rocket 4.3 11:30:10 14° N 11:30:10 14° N 11:30:58 10° N
ATLAS 2AS CENTAUR R/B 2.9 11:25:45 66° WSW 11:26:51 76° WNW 11:34:48 10° NNE
Milstar 3 Cent rocket 3.3 11:26:49 47° SSW 11:28:18 54° S 11:39:48 10° E
NOSS 3-2 (A) 4.1 11:38:29 54° W 11:39:30 57° WSW 11:47:56 10° S
Lacrosse 4 Rocket 2.5 11:39:58 39° NE 11:40:33 41° ENE 11:44:43 10° SE
CZ-4B R/B 3.4 11:43:57 10° SE 11:45:32 24° SE 11:45:32 24° SE
FENGYUN 3A 3.5 11:43:41 10° N 11:49:06 78° WNW 11:54:28 10° SSW
Cosmos 1461 3.0 11:54:25 71° SSW 11:54:25 71° SSW 11:58:30 10° SSE
